Overview Statistics Trail Chart Weather Telemetry Raw packets
 

This is the latest recevied weather packets stored in our database for station/object N7WSS. If no packets are shown the sender has not sent any weather packets the latest 10 day(s).

<< 91 92 93 94 95 96 97 >>
Time Temp. Humidity Pressure Rain* Wind** Luminosity Snow
1787955565 40° C 23% 1011.6 hPa 0 mm - - -
1787955260 40° C 24% 1011.6 hPa 0 mm - - -
1787954955 40° C 24% 1011.7 hPa 0 mm - - -
1787954651 40.56° C 23% 1011.7 hPa 0 mm - - -
1787954349 41.67° C 22% 1011.6 hPa 0 mm - - -
1787954045 41.67° C 23% 1011.7 hPa 0 mm - - -
1787953744 41.11° C 23% 1011.8 hPa 0 mm - - -
1787953439 41.67° C 23% 1011.9 hPa 0 mm - - -
1787953137 41.67° C 23% 1012.1 hPa 0 mm - - -
1787952836 41.11° C 23% 1012.1 hPa 0 mm - - -
1787952536 40.56° C 23% 1012.1 hPa 0 mm - - -
1787952234 40.56° C 23% 1012.3 hPa 0 mm - - -
1787951931 40.56° C 23% 1012.5 hPa 0 mm - - -
1787951627 41.67° C 23% 1012.6 hPa 0 mm - - -
1787951323 40.56° C 24% 1012.7 hPa 0 mm - - -
1787951024 40.56° C 23% 1012.7 hPa 0 mm - - -
1787950713 41.11° C 23% 1012.6 hPa 0 mm - - -
1787950410 41.11° C 23% 1012.9 hPa 0 mm - - -
1787950106 41.11° C 23% 1012.9 hPa 0 mm - - -
1787949801 41.11° C 23% 1013 hPa 0 mm - - -
1787949500 41.11° C 22% 1013 hPa 0 mm - - -
1787949196 40.56° C 23% 1013.2 hPa 0 mm - - -
1787948891 40.56° C 23% 1013.5 hPa 0 mm - - -
1787948587 39.44° C 23% 1013.3 hPa 0 mm - - -
1787948282 40° C 23% 1013.6 hPa 0 mm - - -

* Rain latest hour (hover to see other rain measurements)
** Current wind speed in m/s (hover to see current wind gust speed)